sat.trackr.live / text

‹ back to catalog

DUTHSAT-2

NORAD 64530 · 2025-135C

PAYLOAD ACTIVE UNKNOWN

§ Identity

Operator
Country
GREC
Launch date
2025-06-23
Launch site
AFWTR
Launch vehicle
Mass (kg)
RCS (m²)

External: N2YO · Heavens-Above · Gunter

§ Orbital elements

Epoch: 2026-09-21T20:31:53.145408Z

Period
94.18 min
Inclination
97.4697°
Eccentricity
0.0004386
Mean motion
15.29036040 rev/d
Perigee alt
475.7 km
Apogee alt
481.7 km
Semi-major
6,856.8 km
B*
3.5714e-4
RAAN
20.9182°
Arg perigee
192.1973°
Mean anomaly
167.9161°
Rev number
6,969

§ Raw data

DUTHSAT-21 64530U 25135C   26264.85547622  .00009998  00000+0  35714-3 0  99902 64530  97.4697  20.9182 0004386 192.1973 167.9161 15.29036040 69698

JSON: /api/v1/satellites/64530 · /tle

For live sub-satellite position, see the globe view (requires WebGL).

§ Visibility from observer

Set your observer location to see the next 7 days of passes ≥ 10°. The values pass through the URL so the page stays shareable.

No JS? Fill the form by hand. The geolocation button needs JavaScript.